When you browse on this site, cookies collect data to enhance your experience and personalize the content and advertising you see.
Visit our Privacy Policy to learn more. By continuing to use the site, you agree to this use of cookies and data.
  • In Italy
  • List of Countries
  • For 7 days
  • Water Temperature
  • Satellite Maps
  • Weather Map
  • Weather Widgets
  • user-avatar
    Login

    Hourly Weather Natitingou

    Today, 21 April, Sunday

    Time Temperature Precipitation Wind Pressure Humidity
    00:00 +32°C° 0 mm 2 mps 716 mmHg 46%
    01:00 +31°C° 0.1 mm 2 mps 716 mmHg 50%
    02:00 +30°C° 0.1 mm 2 mps 716 mmHg 54%
    03:00 +30°C° 0.1 mm 3 mps 715 mmHg 58%
    04:00 +29°C° 0 mm 3 mps 715 mmHg 61%
    05:00 +29°C° 0 mm 3 mps 716 mmHg 63%
    06:00 +28°C° 0 mm 3 mps 716 mmHg 69%
    07:00 +29°C° 0 mm 3 mps 716 mmHg 65%
    08:00 +32°C° 0 mm 4 mps 717 mmHg 62%
    09:00 +33°C° 0 mm 4 mps 717 mmHg 58%
    10:00 +35°C° 0 mm 3 mps 717 mmHg 51%
    11:00 +37°C° 0 mm 3 mps 716 mmHg 44%
    12:00 +39°C° 0 mm 2 mps 716 mmHg 37%
    13:00 +39°C° 0 mm 2 mps 715 mmHg 34%
    14:00 +40°C° 0 mm 1 mps 715 mmHg 32%
    15:00 +37°C° 0 mm 0 mps 714 mmHg 29%
    16:00 +36°C° 0 mm 0 mps 714 mmHg 31%
    17:00 +35°C° 0 mm 0 mps 714 mmHg 32%
    18:00 +34°C° 0 mm 0 mps 714 mmHg 33%
    19:00 +36°C° 0.2 mm 1 mps 714 mmHg 35%
    20:00 +35°C° 0.2 mm 1 mps 714 mmHg 37%
    21:00 +34°C° 0.2 mm 1 mps 715 mmHg 39%
    22:00 +34°C° 0 mm 1 mps 715 mmHg 40%
    23:00 +33°C° 0 mm 1 mps 715 mmHg 41%

    Tomorrow, 22 April, Monday

    Time Temperature Precipitation Wind Pressure Humidity
    00:00 +33°C° 0 mm 1 mps 714 mmHg 42%
    01:00 +32°C° 0 mm 1 mps 714 mmHg 44%
    02:00 +32°C° 0 mm 2 mps 714 mmHg 45%
    03:00 +31°C° 0 mm 2 mps 713 mmHg 47%
    04:00 +31°C° 0 mm 2 mps 714 mmHg 49%
    05:00 +31°C° 0 mm 2 mps 714 mmHg 51%
    06:00 +30°C° 0 mm 3 mps 715 mmHg 53%
    07:00 +31°C° 0 mm 3 mps 715 mmHg 51%
    08:00 +34°C° 0 mm 3 mps 716 mmHg 49%
    09:00 +35°C° 0 mm 4 mps 717 mmHg 47%
    10:00 +36°C° 0 mm 3 mps 716 mmHg 43%
    11:00 +38°C° 0 mm 3 mps 716 mmHg 38%
    12:00 +39°C° 0 mm 3 mps 716 mmHg 34%
    13:00 +39°C° 0 mm 3 mps 715 mmHg 33%
    14:00 +40°C° 0 mm 2 mps 714 mmHg 31%
    15:00 +40°C° 0 mm 2 mps 714 mmHg 30%
    16:00 +39°C° 0 mm 2 mps 713 mmHg 32%
    17:00 +38°C° 0 mm 2 mps 713 mmHg 34%
    18:00 +37°C° 0 mm 2 mps 713 mmHg 36%
    19:00 +36°C° 0 mm 2 mps 714 mmHg 39%
    20:00 +36°C° 0 mm 2 mps 714 mmHg 41%
    21:00 +34°C° 0 mm 1 mps 714 mmHg 43%
    22:00 +35°C° 0 mm 2 mps 714 mmHg 45%
    23:00 +34°C° 0 mm 2 mps 715 mmHg 48%

    Day after tomorrow, 23 April, Tuesday

    Time Temperature Precipitation Wind Pressure Humidity
    00:00 +34°C° 0 mm 2 mps 715 mmHg 50%
    01:00 +31°C° 1.1 mm 2 mps 715 mmHg 56%
    02:00 +30°C° 1.1 mm 2 mps 714 mmHg 63%
    03:00 +29°C° 1.1 mm 2 mps 714 mmHg 69%
    04:00 +29°C° 0 mm 3 mps 714 mmHg 71%
    05:00 +28°C° 0 mm 3 mps 715 mmHg 73%
    06:00 +28°C° 0 mm 4 mps 715 mmHg 75%
    07:00 +29°C° 0 mm 4 mps 716 mmHg 69%
    08:00 +32°C° 0 mm 4 mps 716 mmHg 64%
    09:00 +33°C° 0 mm 4 mps 717 mmHg 58%
    10:00 +35°C° 0 mm 4 mps 717 mmHg 51%
    11:00 +37°C° 0 mm 3 mps 716 mmHg 44%
    12:00 +39°C° 0 mm 3 mps 716 mmHg 37%
    13:00 +39°C° 0 mm 3 mps 715 mmHg 35%
    14:00 +40°C° 0 mm 2 mps 715 mmHg 32%
    15:00 +41°C° 0 mm 2 mps 714 mmHg 29%
    16:00 +39°C° 0.1 mm 1 mps 714 mmHg 32%
    17:00 +37°C° 0.1 mm 1 mps 714 mmHg 35%
    18:00 +36°C° 0.1 mm 1 mps 714 mmHg 37%
    19:00 +35°C° 0 mm 1 mps 714 mmHg 39%
    20:00 +34°C° 0 mm 1 mps 715 mmHg 41%
    21:00 +33°C° 0 mm 1 mps 716 mmHg 44%
    22:00 +33°C° 0.5 mm 1 mps 716 mmHg 48%
    23:00 +32°C° 0.5 mm 1 mps 716 mmHg 53%

    24 April, Wednesday

    Time Temperature Precipitation Wind Pressure Humidity
    00:00 +31°C° 0.5 mm 1 mps 716 mmHg 57%
    01:00 +30°C° 1.2 mm 1 mps 715 mmHg 62%
    02:00 +30°C° 1.2 mm 1 mps 715 mmHg 66%
    03:00 +29°C° 1.2 mm 1 mps 714 mmHg 70%
    04:00 +29°C° 0 mm 2 mps 715 mmHg 71%
    05:00 +28°C° 0 mm 2 mps 715 mmHg 73%
    06:00 +28°C° 0 mm 3 mps 715 mmHg 74%
    07:00 +30°C° 0 mm 3 mps 716 mmHg 68%
    08:00 +31°C° 0 mm 3 mps 717 mmHg 63%
    09:00 +34°C° 0 mm 3 mps 717 mmHg 58%
    10:00 +36°C° 0 mm 3 mps 717 mmHg 51%
    11:00 +38°C° 0 mm 2 mps 717 mmHg 44%
    12:00 +40°C° 0 mm 2 mps 717 mmHg 37%
    13:00 +40°C° 0 mm 1 mps 716 mmHg 36%
    14:00 +39°C° 0 mm 1 mps 715 mmHg 36%
    15:00 +36°C° 0 mm 0 mps 714 mmHg 36%
    16:00 +36°C° 0 mm 0 mps 715 mmHg 37%
    17:00 +37°C° 0 mm 1 mps 715 mmHg 39%
    18:00 +36°C° 0 mm 1 mps 715 mmHg 40%
    19:00 +35°C° 0.3 mm 1 mps 715 mmHg 44%
    20:00 +34°C° 0.3 mm 1 mps 716 mmHg 48%
    21:00 +33°C° 0.3 mm 1 mps 716 mmHg 51%
    22:00 +34°C° 0 mm 2 mps 716 mmHg 53%
    23:00 +32°C° 0 mm 2 mps 716 mmHg 55%

    25 April, Thursday

    Time Temperature Precipitation Wind Pressure Humidity
    00:00 +32°C° 0 mm 2 mps 716 mmHg 56%
    01:00 +31°C° 0 mm 2 mps 715 mmHg 60%
    02:00 +30°C° 0 mm 3 mps 715 mmHg 64%
    03:00 +30°C° 0 mm 3 mps 715 mmHg 68%
    04:00 +29°C° 0 mm 3 mps 715 mmHg 70%
    05:00 +29°C° 0 mm 4 mps 716 mmHg 72%
    06:00 +29°C° 0 mm 4 mps 717 mmHg 74%
    07:00 +29°C° 0 mm 4 mps 717 mmHg 71%
    08:00 +30°C° 0 mm 4 mps 718 mmHg 68%
    09:00 +32°C° 0 mm 4 mps 718 mmHg 66%
    10:00 +33°C° 0 mm 3 mps 718 mmHg 60%
    11:00 +35°C° 0 mm 3 mps 718 mmHg 54%
    12:00 +36°C° 0 mm 3 mps 717 mmHg 48%
    13:00 +37°C° 0 mm 2 mps 716 mmHg 44%
    14:00 +38°C° 0 mm 2 mps 716 mmHg 40%
    15:00 +39°C° 0 mm 1 mps 715 mmHg 36%
    16:00 +37°C° 0 mm 1 mps 715 mmHg 38%
    17:00 +37°C° 0 mm 1 mps 715 mmHg 40%
    18:00 +36°C° 0 mm 1 mps 715 mmHg 41%
    19:00 +35°C° 0 mm 1 mps 715 mmHg 44%
    20:00 +34°C° 0 mm 1 mps 716 mmHg 47%
    21:00 +34°C° 0 mm 2 mps 716 mmHg 49%
    22:00 +34°C° 0 mm 2 mps 716 mmHg 53%
    23:00 +32°C° 0 mm 2 mps 716 mmHg 56%

    26 April, Friday

    Time Temperature Precipitation Wind Pressure Humidity
    00:00 +31°C° 0 mm 2 mps 716 mmHg 59%
    01:00 +31°C° 0 mm 2 mps 715 mmHg 61%
    02:00 +30°C° 0 mm 2 mps 715 mmHg 64%
    03:00 +30°C° 0 mm 2 mps 715 mmHg 66%
    04:00 +30°C° 0 mm 2 mps 715 mmHg 67%
    05:00 +29°C° 0 mm 3 mps 715 mmHg 67%
    06:00 +29°C° 0 mm 3 mps 716 mmHg 68%
    07:00 +31°C° 0 mm 3 mps 716 mmHg 63%
    08:00 +33°C° 0 mm 3 mps 716 mmHg 59%
    09:00 +35°C° 0 mm 3 mps 717 mmHg 54%
    10:00 +36°C° 0 mm 3 mps 717 mmHg 49%
    11:00 +38°C° 0 mm 2 mps 716 mmHg 43%
    12:00 +40°C° 0 mm 2 mps 716 mmHg 37%
    13:00 +40°C° 0 mm 2 mps 715 mmHg 36%
    14:00 +40°C° 0 mm 1 mps 714 mmHg 36%
    15:00 +39°C° 0 mm 1 mps 713 mmHg 36%
    16:00 +39°C° 0 mm 1 mps 713 mmHg 37%
    17:00 +37°C° 0 mm 1 mps 714 mmHg 38%
    18:00 +37°C° 0 mm 1 mps 714 mmHg 40%
    19:00 +37°C° 0 mm 2 mps 714 mmHg 43%
    20:00 +36°C° 0 mm 2 mps 715 mmHg 46%
    21:00 +35°C° 0 mm 3 mps 715 mmHg 49%
    22:00 +35°C° 0 mm 3 mps 715 mmHg 51%
    23:00 +34°C° 0 mm 3 mps 714 mmHg 54%
    Show more